Location: Fours
(44.3167°N, 6.7000°E)
Time: 20:09:54
(UTC+00:00)

Timation 2 Rocket - Pass Details

Date: 01 June 2022
Orbit: 904 x 1076 km, 70.0° (Epoch: 25 June)

Event Time Altitude Azimuth Distance (km) Brightness Sun altitude
Rises 20:30:09 0° 324° (NW) 3,774 9.2 -11.7°
Reaches altitude 10° 20:33:03 10° 313° (NW) 2,843 8.0 -12.1°
Maximum altitude 20:38:37 29° 257° (WSW) 1,833 5.7 -12.7°
Drops below altitude 10° 20:44:17 10° 200° (SSW) 2,895 6.2 -13.4°
Enters shadow 20:46:48 - 191° (S) 3,692 6.6 -13.7°
